Location: Czekanka
(50.4925°N, 19.2643°E)
Time: 13:03:53
(UTC+00:00)

BREEZE-M R/B - Pass Details

Date: 15 June 2024
Orbit: 1071 x 14786 km, 50.7° (Epoch: 16 July)

Event Time Altitude Azimuth Distance (km) Brightness Sun altitude
Rises 01:19:55 0° 288° (WNW) 6,346 8.0 -8.5°
Reaches altitude 10° 01:24:44 10° 286° (WNW) 4,342 7.2 -8.0°
Maximum altitude 01:33:22 68° 206° (SSW) 1,239 4.4 -7.2°
Drops below altitude 10° 01:39:08 10° 123° (ESE) 2,944 6.6 -6.6°
Sets 01:41:42 0° 121° (ESE) 4,093 7.4 -6.4°
